GW1476 Weather Reports


time (UTC)temp
F
wind
direction
speed
knots
gust
knots
rain 1hr
in
rain 24hr
in
rain mn
in
humidity
%
barometer
mb
20260902063330 71 203 0.0 0.0 0.00 0.00 0.00 99 1021.3
20260902060909 72 248 0.0 0.0 0.00 0.00 0.00 99 1021.3
20260902060343 72 248 0.0 0.0 0.00 0.00 0.00 99 1021.3
20260902055714 72 203 0.0 0.0 0.00 0.00 0.00 99 1021.3
20260902055125 72 203 0.0 0.0 0.00 0.00 0.00 99 1021.3
20260902054536 72 203 0.0 0.0 0.00 0.00 0.00 99 1021.3
20260902053929 72 225 0.0 0.0 0.00 0.00 0.00 99 1021.3
20260902053338 72 225 0.0 0.0 0.00 0.00 0.00 99 1021.3
20260902052123 72 203 0.0 0.0 0.00 0.00 0.00 99 1021.3
20260902051511 72 225 0.0 0.0 0.00 0.00 0.00 99 1020.9
20260902050907 72 225 0.0 0.0 0.00 0.00 0.00 99 1020.9
20260902050320 72 225 0.0 0.0 0.00 0.00 0.00 99 1020.9
20260902045729 72 225 0.0 0.0 0.00 0.00 0.00 99 1020.9
20260902045115 72 270 0.0 0.0 0.00 0.00 0.00 99 1020.9
20260902043942 73 203 0.0 0.0 0.00 0.00 0.00 99 1020.9
20260902043349 73 225 0.0 0.0 0.00 0.00 0.00 99 1020.9
20260902042748 73 225 0.0 0.0 0.00 0.00 0.00 99 1020.9
20260902042144 73 203 0.0 0.0 0.00 0.00 0.00 99 1020.9
20260902041539 73 225 0.0 0.0 0.00 0.00 0.00 99 1020.9
20260902040933 73 225 0.0 0.0 0.00 0.00 0.00 99 1020.9
20260902040333 73 203 0.0 0.0 0.00 0.00 0.00 99 1020.9
20260902035715 73 203 0.0 0.0 0.00 0.00 0.00 99 1020.9
20260902035111 73 180 0.0 0.0 0.00 0.00 0.00 99 1020.9
20260902034505 74 203 0.0 0.0 0.00 0.00 0.00 99 1020.9
20260902033906 74 203 0.0 0.0 0.00 0.00 0.00 99 1020.9
20260902033323 74 225 0.0 0.0 0.00 0.00 0.00 99 1020.9
20260902032117 74 203 0.0 0.0 0.00 0.00 0.00 99 1020.9
20260902031530 74 203 0.0 0.0 0.00 0.00 0.00 99 1020.9
20260902030914 74 225 0.0 0.0 0.00 0.00 0.00 99 1020.9
20260902025726 74 203 0.0 0.0 0.00 0.00 0.00 99 1020.9
20260902025144 74 203 0.0 0.0 0.00 0.00 0.00 99 1020.9
20260902024536 75 225 0.0 0.0 0.00 0.00 0.00 99 1020.6
20260902023948 75 225 0.0 0.0 0.00 0.00 0.00 99 1020.9
20260902023349 75 225 0.0 0.0 0.00 0.00 0.00 99 1020.9
20260902022717 75 203 0.0 0.0 0.00 0.00 0.00 99 1020.9
20260902022119 75 270 0.0 0.0 0.00 0.00 0.00 99 1020.6
20260902020938 75 248 0.0 0.0 0.00 0.00 0.00 99 1020.9
20260902020310 76 203 0.0 0.0 0.00 0.00 0.00 99 1020.9
20260902015123 76 203 0.0 0.0 0.00 0.00 0.00 99 1020.6
20260902014507 76 225 0.9 0.9 0.00 0.00 0.00 99 1020.6
20260902013906 76 203 0.0 1.7 0.00 0.00 0.00 99 1020.6
20260902013337 76 203 0.0 0.0 0.00 0.00 0.00 99 1020.6
20260902012738 77 203 0.0 0.0 0.00 0.00 0.00 99 1020.3
20260902012124 77 225 0.0 0.0 0.00 0.00 0.00 99 1020.3
20260902011532 77 203 0.0 0.0 0.00 0.00 0.00 99 1020.3
20260902010942 77 225 0.0 0.0 0.00 0.00 0.00 99 1020.3
20260902010322 78 180 0.0 1.7 0.00 0.00 0.00 99 1020.3
20260902005741 78 203 0.0 0.9 0.00 0.00 0.00 99 1020.3
20260902005121 78 203 0.0 0.0 0.00 0.00 0.00 99 1020.3
20260902004519 78 225 0.9 0.9 0.00 0.00 0.00 99 1019.9
20260902003908 79 270 1.7 1.7 0.00 0.00 0.00 99 1019.9
20260902003349 79 225 1.7 2.6 0.00 0.00 0.00 99 1019.9
20260902002718 79 225 1.7 1.7 0.00 0.00 0.00 99 1019.9
20260902002122 79 225 0.9 1.7 0.00 0.00 0.00 99 1019.9
20260902001528 80 203 2.6 2.6 0.00 0.00 0.00 99 1019.9
20260902000948 80 225 1.7 2.6 0.00 0.00 0.00 99 1019.9
20260902000315 81 203 1.7 2.6 0.00 0.00 0.00 98 1019.6
20260901235711 82 203 1.7 2.6 0.00 0.00 0.00 95 1019.6
20260901235130 83 203 1.7 1.7 0.00 0.00 0.00 93 1019.6
20260901234505 83 203 0.9 1.7 0.00 0.00 0.00 91 1019.6
20260901233934 85 203 0.9 1.7 0.00 0.00 0.00 88 1019.6
20260901233312 84 203 1.7 1.7 0.00 0.00 0.00 89 1019.6
20260901232707 87 203 1.7 1.7 0.00 0.00 0.00 84 1019.6
20260901232113 87 225 0.9 2.6 0.00 0.00 0.00 83 1019.6
20260901230931 88 203 1.7 2.6 0.00 0.00 0.00 82 1019.6
20260901225719 90 225 0.9 2.6 0.00 0.00 0.00 77 1019.6
20260901225118 91 225 1.7 2.6 0.00 0.00 0.00 76 1019.9
20260901224541 92 203 2.6 2.6 0.00 0.00 0.00 75 1019.6
20260901223905 92 248 2.6 3.5 0.00 0.00 0.00 73 1019.9
20260901222744 96 203 1.7 1.7 0.00 0.00 0.00 68 1019.6
20260901222123 97 203 2.6 2.6 0.00 0.00 0.00 66 1019.9
20260901221519 93 225 1.7 1.7 0.00 0.00 0.00 72 1019.9
20260901220937 94 180 2.6 2.6 0.00 0.00 0.00 71 1019.9
20260901220314 94 180 2.6 3.5 0.00 0.00 0.00 70 1019.9
20260901215708 94 203 1.7 3.5 0.00 0.00 0.00 71 1019.9
20260901215141 96 203 2.6 2.6 0.00 0.00 0.00 68 1019.9
20260901213934 94 180 2.6 3.5 0.00 0.00 0.00 70 1020.3
20260901213334 98 203 2.6 2.6 0.00 0.00 0.00 65 1020.3
20260901212705 98 270 0.9 1.7 0.00 0.00 0.00 63 1019.9
20260901211508 98 203 2.6 2.6 0.00 0.00 0.00 62 1020.3
20260901210914 94 225 1.7 2.6 0.00 0.00 0.00 67 1020.3
20260901210320 100 23 1.7 2.6 0.00 0.00 0.00 55 1020.3
20260901205735 100 270 0.9 1.7 0.00 0.00 0.00 55 1020.3
20260901205142 96 158 1.7 4.3 0.00 0.00 0.00 60 1020.6
20260901204528 96 68 2.6 4.3 0.00 0.00 0.00 59 1020.6
20260901203922 95 23 2.6 4.3 0.00 0.00 0.00 59 1020.6
20260901203314 94 0 2.6 5.2 0.00 0.00 0.00 59 1020.6
20260901202136 97 293 2.6 4.3 0.00 0.00 0.00 55 1020.6
20260901201524 98 0 5.2 5.2 0.00 0.00 0.00 54 1020.6
20260901200908 98 0 3.5 4.3 0.00 0.00 0.00 53 1020.6
20260901200323 98 0 1.7 3.5 0.00 0.00 0.00 56 1020.6
20260901195747 97 338 1.7 4.3 0.00 0.00 0.00 56 1020.6
20260901195146 97 0 1.7 5.2 0.00 0.00 0.00 57 1020.6
20260901194511 98 0 7.0 7.0 0.00 0.00 0.00 55 1020.6
20260901193915 96 45 3.5 3.5 0.00 0.00 0.00 56 1020.6
20260901193312 97 225 0.0 3.5 0.00 0.00 0.00 56 1020.6
20260901192710 98 0 2.6 3.5 0.00 0.00 0.00 54 1020.6
20260901191529 101 203 2.6 3.5 0.00 0.00 0.00 51 1020.9
20260901190909 100 203 0.9 3.5 0.00 0.00 0.00 54 1020.9
20260901190310 99 158 1.7 1.7 0.00 0.00 0.00 56 1020.9
20260901185716 100 315 0.0 3.5 0.00 0.00 0.00 54 1020.9
20260901185125 101 0 0.9 1.7 0.00 0.00 0.00 54 1020.9
20260901184513 98 45 3.5 3.5 0.00 0.00 0.00 57 1020.9
20260901183945 99 0 2.6 5.2 0.00 0.00 0.00 56 1021.3
20260901183325 99 113 0.9 2.6 0.00 0.00 0.00 56 1021.6
20260901182718 98 23 1.7 2.6 0.00 0.00 0.00 57 1021.6
20260901182138 97 45 1.7 2.6 0.00 0.00 0.00 59 1021.6
20260901180914 97 90 0.9 3.5 0.00 0.00 0.00 59 1021.6
20260901180342 97 113 3.5 7.0 0.00 0.00 0.00 59 1022.0
20260901175128 96 248 0.9 3.5 0.00 0.00 0.00 62 1022.0
20260901174519 97 315 3.5 5.2 0.00 0.00 0.00 61 1022.0
20260901173942 97 315 2.6 6.1 0.00 0.00 0.00 60 1022.0
20260901173345 96 45 3.5 3.5 0.00 0.00 0.00 63 1022.0
20260901172735 96 23 1.7 1.7 0.00 0.00 0.00 64 1022.0
20260901171514 96 68 3.5 5.2 0.00 0.00 0.00 63 1022.3
20260901170924 95 68 1.7 5.2 0.00 0.00 0.00 65 1022.3
20260901170319 95 270 3.5 3.5 0.00 0.00 0.00 67 1022.3
20260901165707 94 23 3.5 3.5 0.00 0.00 0.00 68 1022.0
20260901165116 94 338 2.6 7.8 0.00 0.00 0.00 67 1022.3
20260901164521 94 0 6.1 6.1 0.00 0.00 0.00 68 1022.3
20260901163939 94 158 0.9 3.5 0.00 0.00 0.00 68 1022.3
20260901163326 95 180 2.6 2.6 0.00 0.00 0.00 68 1022.3
20260901162727 94 225 1.7 1.7 0.00 0.00 0.00 69 1022.3
20260901162125 94 203 1.7 1.7 0.00 0.00 0.00 69 1022.3
20260901161512 94 23 1.7 3.5 0.00 0.00 0.00 68 1022.3
20260901160937 93 180 1.7 2.6 0.00 0.00 0.00 71 1022.3
20260901160344 92 180 1.7 3.5 0.00 0.00 0.00 72 1022.3
20260901155738 93 293 2.6 2.6 0.00 0.00 0.00 70 1022.3
20260901155108 92 158 3.5 3.5 0.00 0.00 0.00 72 1022.3
20260901154540 92 270 4.3 4.3 0.00 0.00 0.00 72 1022.3
20260901153951 92 270 1.7 4.3 0.00 0.00 0.00 73 1022.3
20260901152708 91 203 3.5 3.5 0.00 0.00 0.00 75 1022.3
20260901151536 91 225 2.6 2.6 0.00 0.00 0.00 77 1022.3
20260901150347 91 203 1.7 2.6 0.00 0.00 0.00 78 1022.6
20260901145129 88 203 1.7 1.7 0.00 0.00 0.00 82 1022.6
20260901143932 87 203 1.7 2.6 0.00 0.00 0.00 83 1022.6
20260901143331 86 203 1.7 2.6 0.00 0.00 0.00 86 1022.6
20260901142146 85 180 1.7 1.7 0.00 0.00 0.00 87 1022.6
20260901141522 85 23 1.7 1.7 0.00 0.00 0.00 87 1022.6
20260901140918 83 90 1.7 1.7 0.00 0.00 0.00 92 1022.6
20260901140326 84 158 0.0 1.7 0.00 0.00 0.00 90 1022.6
20260901135741 82 203 0.0 0.0 0.00 0.00 0.00 91 1022.6
20260901133348 80 113 0.0 0.0 0.00 0.00 0.00 97 1023.0
20260901132707 79 135 0.0 0.0 0.00 0.00 0.00 97 1023.0
20260901131519 77 180 0.0 0.0 0.00 0.00 0.00 99 1023.0
20260901130326 76 270 0.0 0.0 0.00 0.00 0.00 99 1023.0
20260901125711 75 248 0.0 0.0 0.00 0.00 0.00 99 1023.0
20260901125114 75 225 0.0 0.0 0.00 0.00 0.00 99 1023.0
20260901124529 74 203 0.0 0.0 0.00 0.00 0.00 99 1023.0
20260901123317 72 203 0.0 0.0 0.00 0.00 0.00 99 1023.0
20260901122721 71 225 0.0 0.0 0.00 0.00 0.00 99 1023.0
20260901122121 71 203 0.0 0.0 0.00 0.00 0.00 99 1023.0
20260901121534 71 225 0.0 0.0 0.00 0.00 0.00 99 1023.0
20260901120934 71 225 0.0 0.0 0.00 0.00 0.00 99 1023.0
20260901120343 71 225 0.0 0.0 0.00 0.00 0.00 99 1023.0
20260901115106 71 225 0.0 0.0 0.00 0.00 0.00 99 1022.6
20260901113931 70 248 0.0 0.0 0.00 0.00 0.00 99 1022.3
20260901113327 70 225 0.0 0.0 0.00 0.00 0.00 99 1022.3
20260901112749 70 248 0.0 0.0 0.00 0.00 0.00 99 1022.3
20260901112143 70 225 0.0 0.0 0.00 0.00 0.00 99 1022.3
20260901111522 70 225 0.0 0.0 0.00 0.00 0.00 99 1022.3
20260901110924 70 203 0.0 0.0 0.00 0.00 0.00 99 1022.3
20260901110308 70 203 0.0 0.0 0.00 0.00 0.00 99 1022.0
20260901105744 70 180 0.0 0.0 0.00 0.00 0.00 99 1022.0
20260901105136 70 203 0.0 0.0 0.00 0.00 0.00 99 1022.0
20260901104533 70 203 0.0 0.0 0.00 0.00 0.00 99 1022.0
20260901103310 70 225 0.0 0.0 0.00 0.00 0.00 99 1022.0
20260901102120 70 203 0.0 0.0 0.00 0.00 0.00 99 1021.6
20260901101526 70 225 0.0 0.0 0.00 0.00 0.00 99 1022.0
20260901100947 70 203 0.0 0.0 0.00 0.00 0.00 99 1021.6
20260901100328 70 203 0.0 0.0 0.00 0.00 0.00 99 1021.6
20260901095141 70 203 0.0 0.0 0.00 0.00 0.00 99 1021.6
20260901094506 70 203 0.0 0.0 0.00 0.00 0.00 99 1021.6
20260901091527 71 225 0.0 0.0 0.00 0.00 0.00 99 1021.3
20260901090328 71 225 0.0 0.0 0.00 0.00 0.00 99 1021.3
20260901085126 71 248 0.0 0.0 0.00 0.00 0.00 99 1021.3
20260901084511 71 203 0.0 0.0 0.00 0.00 0.00 99 1021.3
20260901083928 71 203 0.0 0.0 0.00 0.00 0.00 99 1021.3
20260901083348 71 225 0.0 0.0 0.00 0.00 0.00 99 1021.3
20260901082727 71 203 0.0 0.0 0.00 0.00 0.00 99 1021.3
20260901082127 71 203 0.0 0.0 0.00 0.00 0.00 99 1021.3
20260901081515 71 180 0.0 0.0 0.00 0.00 0.00 99 1021.3
20260901080936 71 225 0.0 0.0 0.00 0.00 0.00 99 1021.3
20260901080350 71 203 0.0 0.0 0.00 0.00 0.00 99 1021.3
20260901075745 71 225 0.0 0.0 0.00 0.00 0.00 99 1021.3
20260901074532 71 270 0.0 0.0 0.00 0.00 0.00 99 1021.3
20260901073907 71 225 0.0 0.0 0.00 0.00 0.00 99 1021.3
20260901073318 71 180 0.0 0.0 0.00 0.00 0.00 99 1021.3
20260901072722 71 203 0.0 0.0 0.00 0.00 0.00 99 1021.3
20260901072130 71 270 0.0 0.0 0.00 0.00 0.00 99 1021.3
20260901071541 72 248 0.0 0.0 0.00 0.00 0.00 99 1020.9
20260901070311 72 203 0.0 0.0 0.00 0.00 0.00 99 1020.9
20260901065724 71 203 0.0 0.0 0.00 0.00 0.00 99 1021.3
20260901065128 71 315 0.0 0.0 0.00 0.00 0.00 99 1021.3
20260901064544 72 203 0.0 0.0 0.00 0.00 0.00 99 1021.3
20260901063940 71 248 0.0 0.0 0.00 0.00 0.00 99 1021.3